User: anonymous   Login
Location: Franzen
(48.6167°N, 15.3833°E)
Time: 20:27:08
(UTC+00:00)
Language:

Thor Agena Rocket - Orbit

View from above orbital plane
View from above orbital plane
View from above satellite
View from above satellite

Ground track
Ground track

The orbit data is extracted from the following two-line orbital elements,

1   733U 64002A   21172.63638179 -.00000014  00000-0  12239-4 0  9998
2   733  98.9845  83.8827 0032828 234.8488 124.9617 14.32443762992099
Epoch (UTC): 21 June 2021 15:16:23
Eccentricity: 0.0032828
inclination: 98.9845°
perigee height: 760 km
apogee height: 807 km
right ascension of ascending node: 83.8827°
argument of perigee: 234.8488°
revolutions per day: 14.32443762
mean anomaly at epoch: 124.9617°
orbit number at epoch: 99209

The dashed part of the orbit path shows where the satellite is in the earth's shadow,  

DLR